Погода в аэропорте Грантли Адамс

Барбадос     13°04′37″N   59°29′20″W
темп.,
°C
ветер,
м/с
пор.,
м/с
влажн.,
%
обл.,
%
осадки,
мм/ч
давл.,
гПа
погр.,
м
27 ноября, сб
сб2723:00+27в3479100 0.1 1012441
02:00+26всв348172 0.2 1011468
05:00+26в448286 0.1 1011470
08:00+27в457735 0.1 1013674
11:00+28в447593 0.4 1014676
14:00+28всв557523 2.2 1011806
17:00+27всв5677100 0.0 1011741
20:00+27в677882 0.1 1013711
28 ноября, вс
вс2823:00+27в788057 0.1 1013681
02:00+27в688165 0.2 1011652
05:00+27в67775 0.4 1011677
08:00+28в78735 0.4 1013956
11:00+28в77715 0.0 10131015
14:00+28в777321 0.2 1011916
17:00+27в677718 0.1 1011840
20:00+27всв798063 0.1 1013723
29 ноября, пн
пн2923:00+27всв897588 0.3 1012836
02:00+27всв897563 0.3 1011809
05:00+26всв798033 0.1 1011714
08:00+28в997433 0.6 1013996
11:00+28в88706 0.0 10131126
14:00+28в777393 0.7 1011930
17:00+27всв6774100 0.3 1011765
20:00+27в89776 1.1 1013769
30 ноября, вт
вт3023:00+27в89785 0.4 1013809
02:00+27в78785 0.5 1012739
05:00+27всв79806 0.2 1012737
08:00+28в9107611 0.3 1014990
11:00+28в9107481 0.2 10141039
14:00+28в8107586 0.3 10121019
17:00+27всв81078100 0.3 1011919
20:00+27всв91179100 0.5 1013877
1 декабря, ср
ср123:00+27всв91181100 0.6 1013844
02:00+27всв91180100 0.7 1012847
05:00+27всв9117933 0.1 1012882
08:00+28всв101175100 0.2 10141064
11:00+28всв91172100 0.0 10141124
14:00+28всв91072100 0.1 10121090
17:00+27всв8107797 0.1 1012955
20:00+27всв91179100 0.2 1013886